Location: Cudham
(51.3000°N, 0.0667°E)
Time: 23:34:53
(UTC+00:00)

SPOT 3 Rocket - Pass Details

Date: 15 May 2026
Orbit: 774 x 790 km, 98.5° (Epoch: 9 June)

Event Time Altitude Azimuth Distance (km) Brightness Sun altitude
Exits shadow 21:09:26 12° 162° (SSE) 2,180 5.3 -10.8°
Maximum altitude 21:14:12 87° 76° (ENE) 785 3.5 -11.2°
Drops below altitude 10° 21:19:22 10° 346° (NNW) 2,336 7.2 -11.7°
Sets 21:21:41 0° 346° (NNW) 3,267 8.1 -12.0°
